Weather History for Jackson, KY

Change the Weather History Date:

Wednesday, July 16, 2014

  Actual Average Record
Temperature  
Mean Temperature 65 °F 76 °F  
Max Temperature 74 °F 85 °F 96 °F (1988)
Min Temperature 55 °F 66 °F 55 °F (2014)
Degree Days  
Heating Degree Days 0 0  
Month to date heating degree days 0 0  
Since 1 June heating degree days 0 12  
Since 1 July heating degree days 0 0  
Cooling Degree Days 0 11  
Month to date cooling degree days 164 166  
Year to date cooling degree days 642 525  
Since 1 June cooling degree days 451 389  
Growing Degree Days 14 (Base 50)    
Moisture  
Dew Point 50 °F    
Average Humidity 64    
Maximum Humidity 83    
Minimum Humidity 44    
Precipitation  
Precipitation 0.00 in 0.16 in 0.25 in (1981)
Month to date precipitation 2.12 2.35  
Year to date precipitation 26.10 27.56  
Snow  
Snow 0.00 in 0.00 in - ()
Month to date snowfall 0.0 0.0  
Since 1 June snowfall 0.0 0.0  
Since 1 July snowfall 0.0 0.0  
Snow Depth 0.00 in    
Sea Level Pressure  
Sea Level Pressure 29.98 in    
Wind  
Wind Speed 2 mph (NW)    
Max Wind Speed 8 mph    
Max Gust Speed 12 mph    
Visibility 10 miles    
Events      
T = Trace of Precipitation, MM = Missing Value Source: NWS Daily Summary

Daily Weather History Graph

Daily Weather History Graph

Search for Another Location

Airport:

Trip Planner

Search our weather history database for the weather conditions in past years. The results will help you decide how hot, cold, wet, or windy it might be!

Date:

Astronomy

Jul. 16, 2014 Rise Set
Actual Time 6:24 AM EDT 8:53 PM EDT
Civil Twilight 5:54 AM EDT 9:23 PM EDT
Nautical Twilight 5:16 AM EDT 10:01 PM EDT
Astronomical Twilight 4:35 AM EDT 10:42 PM EDT
Moon 11:44 PM EDT (7/16) 11:20 AM EDT (7/16)
Length of Visible Light 15h 29m
Length of Day
14h 29m
Waning Gibbous, 76% of the Moon is Illuminated
Jul 16
Waning Gibbous
Jul 18
Last Quarter
Jul 26
New
Aug 3
First Quarter
Aug 10
Full

Hourly Weather History & Observations

Time (EDT) Temp. Dew Point Humidity Pressure Visibility Wind Dir Wind Speed Gust Speed Precip Events Conditions
12:53 AM 62.1 °F 48.9 °F 62% 29.94 in 10.0 mi North 3.5 mph - N/A   Clear
1:53 AM 60.1 °F 48.9 °F 67% 29.94 in 10.0 mi Calm Calm - N/A   Clear
2:53 AM 60.1 °F 48.0 °F 64% 29.94 in 10.0 mi NNW 3.5 mph - N/A   Clear
3:53 AM 57.0 °F 48.9 °F 74% 29.94 in 10.0 mi Calm Calm - N/A   Clear
4:53 AM 55.9 °F 48.9 °F 77% 29.94 in 10.0 mi Calm Calm - N/A   Clear
5:53 AM 55.9 °F 50.0 °F 80% 29.95 in 10.0 mi Calm Calm - N/A   Mostly Cloudy
6:53 AM 55.0 °F 50.0 °F 83% 29.97 in 10.0 mi Calm Calm - N/A   Scattered Clouds
7:53 AM 59.0 °F 50.0 °F 72% 30.00 in 10.0 mi NW 3.5 mph - N/A   Clear
8:53 AM 62.1 °F 51.1 °F 67% 29.99 in 10.0 mi Calm Calm - N/A   Clear
9:53 AM 64.9 °F 52.0 °F 63% 30.00 in 10.0 mi Calm Calm - N/A   Clear
10:53 AM 66.9 °F 52.0 °F 59% 30.01 in 10.0 mi NW 4.6 mph - N/A   Partly Cloudy
11:53 AM 66.9 °F 51.1 °F 57% 30.01 in 10.0 mi NW 3.5 mph - N/A   Mostly Cloudy
12:53 PM 69.1 °F 50.0 °F 51% 30.00 in 10.0 mi NW 4.6 mph - N/A   Mostly Cloudy
1:53 PM 69.1 °F 48.9 °F 49% 29.99 in 10.0 mi Calm Calm - N/A   Overcast
2:53 PM 70.0 °F 50.0 °F 49% 29.99 in 10.0 mi NW 5.8 mph - N/A   Overcast
3:53 PM 71.1 °F 50.0 °F 47% 29.98 in 10.0 mi Variable 5.8 mph - N/A   Mostly Cloudy
4:53 PM 71.1 °F 51.1 °F 49% 29.98 in 10.0 mi Variable 4.6 mph - N/A   Overcast
5:53 PM 72.0 °F 48.9 °F 44% 29.97 in 10.0 mi WNW 4.6 mph - N/A   Mostly Cloudy
6:53 PM 72.0 °F 50.0 °F 46% 29.97 in 10.0 mi Calm Calm - N/A   Partly Cloudy
7:53 PM 71.1 °F 51.1 °F 49% 29.97 in 10.0 mi Calm Calm - N/A   Clear
8:53 PM 66.9 °F 50.0 °F 54% 29.99 in 10.0 mi NW 4.6 mph - N/A   Clear
9:53 PM 66.9 °F 48.9 °F 52% 30.00 in 10.0 mi NW 3.5 mph - N/A   Clear
10:53 PM 66.0 °F 50.0 °F 56% 30.01 in 10.0 mi NW 3.5 mph - N/A   Partly Cloudy
11:53 PM 62.1 °F 52.0 °F 70% 30.02 in 10.0 mi Calm Calm - N/A   Clear